Fredericksburg, VA

6:55 PM EST on December 09, 2019 (GMT -0500)
Shannon

Weather History for KEZF - October, 2019

Change the Weather History Date:

Monday, October 14, 2019

  Actual Average (KNYG) Record (KNYG)
Temperature  
Mean Temperature 62 °F -  
Max Temperature 76 °F 65 °F 81 °F (1997)
Min Temperature 49 °F 47 °F 35 °F (2006)
Degree Days  
Heating Degree Days 2    
Growing Degree Days 12 (Base 50)    
Moisture  
Dew Point 53 °F    
Average Humidity 82    
Maximum Humidity 100    
Minimum Humidity 38    
Precipitation  
Precipitation 0.00 in - - ()
Sea Level Pressure  
Sea Level Pressure 30.01 in    
Wind  
Wind Speed 1 mph ()    
Max Wind Speed 10 mph    
Max Gust Speed -    
Visibility 8.4 miles    
Events Fog , Rain    
Averages and records for this station are not official NWS values.
T = Trace of Precipitation, MM = Missing Value Source: Averaged Metar Reports

Daily Weather History Graph

Daily Weather History Graph

Search for Another Location

Airport or City:

Astronomy

Oct. 14, 2019 Rise Set
Actual Time 7:17 AM EDT 6:33 PM EDT
Civil Twilight 6:50 AM EDT 7:00 PM EDT
Nautical Twilight 6:20 AM EDT 7:30 PM EDT
Astronomical Twilight 5:49 AM EDT 8:01 PM EDT
Moon 7:22 PM EDT (10/14) 7:47 AM EDT (10/14)
Length of Visible Light 12h 09m
Length of Day
11h 16m
Waxing Gibbous, 99% of the Moon is Illuminated
Oct 14
Waxing Gibbous
Oct 21
Last Quarter
Oct 27
New
Nov 4
First Quarter
Nov 12
Full

Hourly Weather History & Observations

Time (EDT) Temp. Dew Point Humidity Pressure Visibility Wind Dir Wind Speed Gust Speed Precip Events Conditions
12:15 AM 57.6 °F 57.6 °F 100% 30.00 in 10.0 mi Calm Calm - N/A   Overcast
12:35 AM 57.7 °F 57.6 °F 99% 30.00 in 10.0 mi Calm Calm - N/A   Overcast
12:55 AM 57.7 °F 57.6 °F 99% 30.00 in 10.0 mi Calm Calm - N/A   Overcast
1:15 AM 58.1 °F 57.6 °F 98% 30.00 in 10.0 mi Calm Calm - N/A   Overcast
1:35 AM 57.9 °F 57.6 °F 99% 29.99 in 10.0 mi Calm Calm - N/A   Overcast
1:55 AM 58.1 °F 58.1 °F 100% 29.99 in 10.0 mi Calm Calm - N/A   Overcast
2:15 AM 58.1 °F 58.1 °F 100% 29.98 in 10.0 mi Calm Calm - N/A   Overcast
2:35 AM 57.9 °F 57.9 °F 100% 29.98 in 10.0 mi Calm Calm - N/A   Overcast
2:55 AM 57.4 °F 57.4 °F 100% 29.97 in 10.0 mi Calm Calm - N/A   Scattered Clouds
3:15 AM 56.1 °F 56.1 °F 100% 29.97 in 7.0 mi Calm Calm - N/A   Clear
3:35 AM 55.2 °F 55.2 °F 100% 29.96 in 7.0 mi NNW 3.5 mph - N/A   Clear
3:55 AM 54.5 °F 54.5 °F 100% 29.96 in 5.0 mi Calm Calm - N/A   Clear
4:15 AM 52.3 °F 52.3 °F 100% 29.97 in 7.0 mi Calm Calm - N/A   Clear
4:55 AM 52.0 °F 52.0 °F 100% 29.97 in 5.0 mi Calm Calm - N/A   Mostly Cloudy
5:15 AM 52.2 °F 52.2 °F 100% 29.96 in 0.5 mi Calm Calm - N/A Fog Fog
5:35 AM 52.0 °F 52.0 °F 100% 29.97 in 0.8 mi Calm Calm - N/A   Overcast
5:55 AM 50.2 °F 50.2 °F 100% 29.98 in 1.2 mi Calm Calm - N/A   Overcast
6:15 AM 50.4 °F 50.4 °F 100% 29.99 in 3.0 mi Calm Calm - N/A   Scattered Clouds
6:35 AM 50.5 °F 50.5 °F 100% 30.00 in 2.0 mi Calm Calm - N/A   Overcast
6:55 AM 50.4 °F 50.4 °F 100% 30.01 in 0.2 mi Calm Calm - N/A Fog Fog
7:15 AM 50.2 °F 50.2 °F 100% 30.02 in 0.2 mi Calm Calm - N/A Fog Fog
7:35 AM 50.5 °F 50.5 °F 100% 30.02 in 0.2 mi Calm Calm - N/A Fog Fog
7:55 AM 50.5 °F 50.5 °F 100% 30.03 in 0.2 mi Calm Calm - N/A Rain Light Rain
8:15 AM 49.6 °F 49.6 °F 100% 30.04 in 7.0 mi Calm Calm - N/A   Scattered Clouds
8:35 AM 51.3 °F 51.3 °F 100% 30.05 in 10.0 mi Calm Calm - N/A   Clear
8:55 AM 52.2 °F 52.2 °F 100% 30.06 in 10.0 mi Calm Calm - N/A   Clear
9:15 AM 54.3 °F 53.2 °F 96% 30.06 in 10.0 mi Calm Calm - N/A   Clear
9:35 AM 56.3 °F 54.5 °F 94% 30.07 in 10.0 mi SE 3.5 mph - N/A   Clear
9:55 AM 56.8 °F 55.2 °F 94% 30.06 in 10.0 mi Calm Calm - N/A   Clear
10:15 AM 58.1 °F 56.1 °F 93% 30.07 in 10.0 mi Calm Calm - N/A   Clear
10:35 AM 59.0 °F 56.7 °F 92% 30.07 in 10.0 mi East 4.6 mph - N/A   Clear
10:55 AM 60.6 °F 57.6 °F 90% 30.07 in 10.0 mi ESE 3.5 mph - N/A   Clear
11:15 AM 62.6 °F 58.1 °F 85% 30.06 in 10.0 mi ESE 5.8 mph - N/A   Clear
11:35 AM 64.0 °F 58.3 °F 82% 30.06 in 10.0 mi ESE 5.8 mph - N/A   Clear
11:55 AM 65.1 °F 58.1 °F 78% 30.06 in 10.0 mi SSE 6.9 mph - N/A   Clear
12:15 PM 66.0 °F 57.4 °F 74% 30.06 in 10.0 mi SSE 4.6 mph - N/A   Clear
12:55 PM 67.8 °F 55.8 °F 65% 30.05 in 10.0 mi SSE 4.6 mph - N/A   Clear
1:15 PM 68.9 °F 54.3 °F 60% 30.04 in 10.0 mi SSW 3.5 mph - N/A   Clear
1:35 PM 69.8 °F 54.9 °F 59% 30.02 in 10.0 mi ESE 3.5 mph - N/A   Clear
1:55 PM 71.1 °F 54.0 °F 55% 30.00 in 10.0 mi SE 4.6 mph - N/A   Clear
2:15 PM 72.1 °F 53.1 °F 51% 29.99 in 10.0 mi South 3.5 mph - N/A   Clear
2:35 PM 73.2 °F 52.0 °F 47% 29.98 in 10.0 mi Calm Calm - N/A   Clear
2:55 PM 74.5 °F 50.7 °F 43% 29.97 in 10.0 mi South 4.6 mph - N/A   Clear
3:15 PM 75.0 °F 50.0 °F 41% 29.97 in 7.0 mi South 5.8 mph - N/A   Clear
3:35 PM 76.1 °F 48.7 °F 38% 29.98 in 10.0 mi SW 4.6 mph - N/A   Clear
3:55 PM 75.7 °F 48.9 °F 39% 29.98 in 10.0 mi West 5.8 mph - N/A   Clear
4:15 PM 76.3 °F 49.5 °F 39% 29.97 in 10.0 mi WSW 6.9 mph - N/A   Clear
4:35 PM 76.1 °F 49.1 °F 39% 29.97 in 10.0 mi SSW 5.8 mph - N/A   Clear
4:55 PM 76.3 °F 50.2 °F 40% 29.97 in 10.0 mi SSW 10.4 mph - N/A   Clear
5:15 PM 75.2 °F 50.0 °F 41% 29.97 in 10.0 mi WSW 6.9 mph - N/A   Clear
5:35 PM 74.5 °F 50.4 °F 43% 29.97 in 10.0 mi SSW 3.5 mph - N/A   Clear
5:55 PM 73.4 °F 50.4 °F 44% 29.97 in 10.0 mi SSW 4.6 mph - N/A   Clear
6:15 PM 70.9 °F 52.3 °F 52% 29.98 in 10.0 mi South 3.5 mph - N/A   Clear
6:35 PM 65.7 °F 53.8 °F 65% 29.98 in 10.0 mi South 4.6 mph - N/A   Clear
6:55 PM 63.7 °F 54.1 °F 71% 29.99 in 10.0 mi Calm Calm - N/A   Clear
7:15 PM 62.4 °F 54.5 °F 75% 29.99 in 10.0 mi Calm Calm - N/A   Clear
7:55 PM 59.0 °F 53.1 °F 81% 30.00 in 10.0 mi Calm Calm - N/A   Clear
8:15 PM 57.6 °F 53.6 °F 87% 30.01 in 10.0 mi Calm Calm - N/A   Clear
8:35 PM 57.4 °F 52.9 °F 85% 30.01 in 10.0 mi Calm Calm - N/A   Clear
8:55 PM 55.6 °F 52.9 °F 91% 30.02 in 10.0 mi Calm Calm - N/A   Clear
9:15 PM 55.2 °F 52.7 °F 91% 30.02 in 10.0 mi Calm Calm - N/A   Clear
9:35 PM 54.7 °F 51.6 °F 89% 30.03 in 10.0 mi Calm Calm - N/A   Clear
10:15 PM 52.3 °F 51.6 °F 97% 30.04 in 10.0 mi Calm Calm - N/A   Clear
10:35 PM 52.9 °F 51.1 °F 94% 30.05 in 10.0 mi Calm Calm - N/A   Clear
10:55 PM 51.3 °F 50.4 °F 97% 30.05 in 10.0 mi Calm Calm - N/A   Clear
11:15 PM 51.3 °F 51.3 °F 100% 30.06 in 10.0 mi Calm Calm - N/A   Clear
11:35 PM 50.7 °F 50.5 °F 99% 30.06 in 10.0 mi Calm Calm - N/A   Clear
11:55 PM 50.2 °F 50.2 °F 100% 30.07 in 10.0 mi Calm Calm - N/A   Clear